{"data":{"norad_id":57988,"epoch":"2026-05-25T04:15:36.059616Z","epoch_age_seconds":70089,"freshness":"FRESH","line1":"1 57988U 23152C   26145.17750069  .00005679  00000+0  27543-3 0  9993","line2":"2 57988  34.9903  79.7020 0019264  19.8384 340.3074 15.17706096146696","mean_motion":15.17706096,"eccentricity":0.0019264,"inclination_deg":34.9903,"raan_deg":79.702,"arg_perigee_deg":19.8384,"mean_anomaly_deg":340.3074,"bstar":0.00027543,"rev_number":14669,"period_min":94.880030052933,"perigee_km":499.50064004302,"apogee_km":526.04994692736,"semimajor_km":6890.9122934852,"source":"CELESTRAK","updated_at":"2026-05-25T13:38:00.394650Z"}}